This demonstration page uses our WeatherBlox Daily Observations layout. Learn more.

Left ArrowRight Arrow

39.01783, -85.05884

Hourly Observations for July 23, 2018

Temp ( °F °C ) Dew Point ( °F °C ) Humidity (%) Winds ( mph kmh ) Pressure ( in mb ) Visibility ( mi km ) Precip ( " mm )
12:52 am 00:52 Partly Cloudy 68 20 64 17.8 87 87 N 8 13 29.80 1009 10 16 0.00 0.00
1:22 am 01:22 Mostly Cloudy 66 18.9 63 17.2 90 90 N 8 13 29.80 1009 10 16 0.00 0.00
1:52 am 01:52 Cloudy 66 18.9 63 17.2 90 90 N 8 13 29.79 1009 10 16 0.00 0.00
2:52 am 02:52 Cloudy 66 18.9 63 17.2 90 90 N 8 13 29.79 1009 10 16 0.00 0.00
3:52 am 03:52 Cloudy 66 18.9 63 17.2 90 90 NNW 10 17 29.81 1009 10 16 0.00 0.00
4:18 am 04:18 Cloudy 66 18.9 63 17.2 90 90 N 9 15 29.80 1009 10 16 0.00 0.00
4:52 am 04:52 Cloudy 65 18.3 63 17.2 93 93 N 10 17 29.82 1010 10 16 0.00 0.00
5:22 am 05:22 Mostly Cloudy 65 18.3 63 17.2 93 93 N 8 13 29.80 1009 10 16 0.00 0.00
5:34 am 05:34 Mostly Cloudy 65 18.3 63 17.2 93 93 N 8 13 29.80 1009 10 16 0.00 0.00
5:52 am 05:52 Mostly Cloudy 65 18.3 63 17.2 93 93 N 8 13 29.81 1010 10 16 0.00 0.00
6:16 am 06:16 Cloudy 65 18.3 63 17.2 93 93 NNW 8 13 29.83 1010 10 16 0.00 0.00
6:52 am 06:52 Cloudy 65 18.3 63 17.2 93 93 N 9 15 29.83 1010 10 16 0.00 0.00
7:42 am 07:42 Cloudy 66 18.9 63 17.2 90 90 NNE 8 13 29.85 1011 10 16 0.00 0.00
7:52 am 07:52 Cloudy 66 18.9 63 17.2 90 90 N 8 13 29.84 1011 10 16 0.00 0.00
8:52 am 08:52 Cloudy 67 19.4 63 17.2 87 87 N 10 17 29.85 1011 10 16 0.00 0.00
9:49 am 09:49 Mostly Cloudy 72 22 63 17 73 73 N 9 15 29.85 1011 10 16 0.00 0.00
9:52 am 09:52 Mostly Cloudy 71 21.7 63 17.2 76 76 NNE 12 19 29.85 1011 10 16 0.00 0.00
10:52 am 10:52 Mostly Cloudy 74 23.3 63 17.2 69 69 N 13 20 29.85 1011 10 16 0.00 0.00
11:52 am 11:52 Cloudy 75 23.9 63 17.2 66 66 N 10 17 29.86 1011 10 16 0.00 0.00
12:30 pm 12:30 Cloudy 75 23.9 63 17.2 66 66 NNW 10 17 29.88 1012 10 16 0.00 0.00
12:52 pm 12:52 Mostly Cloudy 74 23.3 62 16.7 67 67 NNW 9 15 29.87 1012 10 16 0.00 0.00
1:52 pm 13:52 Cloudy 75 23.9 62 16.7 64 64 N 10 17 29.88 1012 10 16 0.00 0.00
2:52 pm 14:52 Cloudy 76 24.4 63 17.2 64 64 NNE 7 11 29.88 1012 10 16 0.00 0.00
3:52 pm 15:52 Cloudy 76 24.4 63 17.2 64 64 NNE 6 9 29.86 1011 10 16 0.00 0.00
4:52 pm 16:52 Cloudy 77 25 64 17.8 64 64 N 6 9 29.86 1011 10 16 0.00 0.00
5:52 pm 17:52 Mostly Cloudy 79 26.1 64 17.8 60 60 N 7 11 29.87 1011 10 16 0.00 0.00
6:52 pm 18:52 Mostly Cloudy 78 25.6 64 17.8 62 62 NNE 7 11 29.87 1012 10 16 0.00 0.00
7:52 pm 19:52 Mostly Cloudy 78 25.6 65 18.3 64 64 NNE 6 9 29.88 1012 10 16 0.00 0.00
8:52 pm 20:52 Mostly Cloudy 76 24.4 65 18.3 69 69 Calm 29.90 1012 10 16 0.00 0.00
9:52 pm 21:52 Mostly Cloudy 75 23.9 66 18.9 74 74 NW 3 6 29.91 1013 10 16 0.00 0.00
10:52 pm 22:52 Cloudy 74 23.3 66 18.9 76 76 NNW 3 6 29.93 1013 10 16 0.00 0.00
11:52 pm 23:52 Mostly Cloudy 73 22.8 66 18.9 79 79 NW 7 11 29.91 1013 10 16 0.00 0.00

Powered by AerisWeather